Temp
8 8 9 8 8 9 9 8 8 8 8 8 8 8 8 8 8 8 7 7 6 6 6 5 5 4 4 4 3 2 2 2 1 1 0 0 -0 -0 -1 -1 -1 -1 -1 -1
8 8 8 8 8 8 8 8 8 8 8 8 8 8 8 8 8 7 7 7 6 6 5 5 5 5 4 3 3 2 2 1 1 0 -0 -1 -2 -2 -2 -2 -1 -1 -1 -1
8 8 8 8 8 8 9 8 8 7 7 7 7 7 7 7 7 7 7 6 6 5 5 5 5 4 3 3 3 2 1 1 0 -1 -1 -1 -1 -1 -1 -1 -1 -1 -1 -1
8 8 7 7 7 8 8 8 8 7 6 6 7 6 6 6 6 6 6 5 5 4 4 4 4 4 3 2 2 2 1 0 -0 -1 -1 -1 -1 -1 -1 -2 -2 -2 -2 -2
7 7 7 7 7 7 7 7 7 7 7 7 6 6 5 5 5 5 4 4 4 4 4 4 3 3 2 3 2 1 0 -0 -1 -1 -1 -1 -1 -2 -2 -2 -2 -2 -3 -3
7 7 7 7 7 7 7 6 6 6 6 5 6 6 5 6 7 4 3 3 3 4 4 3 3 2 3 2 2 1 0 -0 -1 -1 -2 -2 -2 -2 -2 -3 -3 -3 -4 -5
7 6 6 6 6 6 6 6 5 5 4 5 5 5 6 6 6 4 4 4 4 3 3 3 3 2 2 2 1 0 -0 -1 -2 -2 -3 -3 -2 -2 -2 -3 -3 -4 -4 -5
6 6 6 6 6 6 6 6 6 4 4 5 4 4 6 6 5 4 3 3 3 3 3 3 2 2 2 1 1 -0 -1 -2 -2 -3 -3 -3 -2 -2 -3 -3 -4 -4 -5 -6
6 5 5 5 5 6 6 5 6 6 3 3 4 4 5 6 6 3 3 3 2 2 3 3 2 2 2 1 -0 -1 -2 -2 -3 -3 -3 -3 -2 -3 -3 -4 -5 -6 -6 -6
6 6 5 5 5 5 6 6 5 5 3 3 3 3 5 6 6 4 3 3 3 2 2 2 2 2 1 0 -1 -1 -2 -2 -3 -3 -3 -2 -3 -4 -5 -5 -6 -6 -7 -7
6 6 5 5 5 6 5 5 6 5 5 3 3 5 6 5 5 5 4 4 3 2 2 2 2 1 0 -0 -1 -2 -2 -2 -3 -4 -4 -4 -5 -5 -5 -6 -7 -7 -8 -8
6 6 5 5 5 5 5 5 5 6 4 4 3 5 6 5 5 4 4 3 3 2 2 2 2 1 -0 -1 -2 -2 -2 -3 -4 -4 -5 -5 -5 -6 -6 -7 -7 -8 -9 -9
5 5 5 4 4 5 5 5 5 5 5 4 3 5 5 5 4 4 3 3 2 2 2 2 1 1 -1 -2 -2 -3 -3 -4 -5 -5 -5 -6 -6 -6 -7 -8 -8 -9 -10 -10
5 5 6 6 6 6 5 6 5 5 5 5 5 6 5 4 4 3 3 3 2 2 2 1 1 -0 -2 -3 -3 -4 -4 -4 -5 -5 -6 -6 -7 -7 -8 -8 -9 -10 -11 -11
5 5 5 5 6 6 6 6 5 5 5 4 5 5 5 4 3 3 2 2 2 2 1 1 -0 -2 -3 -3 -3 -3 -4 -5 -5 -6 -6 -7 -7 -8 -8 -9 -10 -11 -11 -12
4 5 5 5 5 5 5 5 5 5 5 5 5 5 5 4 3 3 2 2 1 1 0 -0 -1 -3 -3 -3 -3 -4 -5 -5 -6 -7 -7 -8 -8 -9 -9 -10 -11 -11 -12 -13
4 4 5 5 5 5 4 6 6 6 6 6 5 6 4 4 3 2 2 1 1 0 -1 -1 -2 -3 -3 -4 -4 -5 -5 -6 -7 -7 -8 -8 -9 -9 -10 -11 -11 -12 -13 -13
5 4 4 5 4 1 6 6 6 6 6 6 6 5 4 3 2 2 2 1 0 -0 -1 -2 -2 -3 -3 -4 -5 -6 -6 -7 -7 -8 -8 -9 -9 -10 -11 -11 -12 -13 -13 -14
4 4 4 4 3 4 5 5 6 5 5 5 5 4 3 2 2 2 1 1 -0 -1 -2 -3 -3 -3 -4 -5 -6 -6 -7 -7 -8 -9 -9 -9 -10 -10 -11 -12 -12 -13 -14 -14
3 3 3 3 2 0 5 5 5 4 4 4 3 3 2 1 1 1 0 -0 -1 -2 -3 -3 -3 -4 -5 -6 -7 -7 -7 -8 -8 -9 -9 -10 -10 -11 -12 -13 -13 -13 -14 -15
4 3 3 3 2 3 4 4 3 2 3 2 2 2 1 1 1 0 -0 -1 -2 -3 -3 -3 -3 -5 -6 -7 -7 -7 -8 -9 -9 -9 -10 -10 -11 -12 -13 -13 -13 -14 -15 -15
3 3 3 3 2 2 3 2 2 1 1 1 1 0 -0 -0 -1 -1 -1 -2 -3 -3 -4 -4 -4 -5 -7 -8 -8 -8 -9 -9 -9 -9 -10 -11 -12 -13 -13 -13 -14 -14 -15 -15
2 3 3 2 3 2 2 1 1 1 0 -0 -0 -1 -1 -1 -2 -2 -2 -2 -3 -3 -4 -4 -5 -7 -9 -9 -9 -9 -9 -9 -9 -10 -11 -12 -13 -13 -13 -13 -14 -15 -16 -16
2 2 2 2 2 1 1 1 0 -0 -0 -0 -1 -1 -1 -2 -2 -2 -2 -3 -3 -4 -4 -5 -6 -8 -8 -9 -9 -9 -9 -9 -10 -10 -11 -12 -13 -13 -13 -14 -14 -15 -16 -16
1 1 1 1 1 0 0 0 -0 -0 -1 -1 -1 -1 -1 -2 -2 -2 -3 -4 -4 -4 -4 -6 -7 -8 -9 -9 -9 -9 -9 -10 -10 -11 -12 -12 -13 -13 -13 -14 -15 -15 -16 -16
1 1 0 0 -0 -1 -0 -0 -1 -1 -1 -1 -1 -1 -2 -2 -3 -3 -4 -4 -4 -4 -6 -7 -8 -9 -9 -9 -10 -9 -10 -10 -11 -12 -12 -13 -13 -13 -14 -14 -15 -15 -16 -16
Height
3131 3132 3133 3136 3139 3142 3143 3145 3147 3150 3152 3155 3156 3157 3159 3160 3162 3164 3165 3167 3168 3170 3172 3172 3174 3175 3175 3175 3175 3175 3175 3175 3173 3172 3171 3171 3169 3168 3167 3166 3165 3163 3160 3157
3132 3133 3136 3138 3140 3141 3142 3144 3146 3148 3151 3153 3154 3156 3157 3158 3160 3162 3163 3164 3165 3166 3168 3168 3169 3170 3172 3173 3173 3173 3172 3172 3170 3168 3165 3163 3162 3162 3162 3161 3159 3156 3152 3147
3132 3135 3137 3138 3139 3140 3141 3143 3143 3144 3147 3150 3152 3154 3155 3157 3158 3159 3160 3161 3162 3163 3164 3165 3165 3167 3169 3170 3170 3169 3169 3166 3163 3162 3163 3163 3163 3161 3158 3155 3151 3146 3142 3137
3133 3135 3137 3139 3140 3140 3141 3143 3144 3144 3147 3148 3150 3153 3153 3154 3156 3156 3157 3159 3160 3161 3162 3162 3163 3165 3165 3166 3166 3164 3163 3164 3163 3164 3163 3161 3158 3155 3151 3146 3142 3137 3131 3126
3133 3134 3136 3138 3140 3139 3142 3143 3145 3146 3148 3148 3149 3151 3149 3151 3152 3153 3155 3156 3158 3159 3160 3161 3162 3162 3162 3161 3161 3161 3162 3162 3162 3160 3158 3156 3152 3148 3144 3139 3133 3127 3121 3115
3130 3133 3136 3137 3138 3138 3140 3143 3145 3146 3147 3148 3147 3149 3146 3146 3148 3150 3152 3154 3156 3157 3159 3159 3159 3160 3160 3161 3160 3160 3160 3159 3157 3155 3151 3148 3144 3139 3134 3129 3123 3118 3112 3105
3130 3133 3134 3136 3137 3138 3140 3143 3146 3148 3147 3146 3145 3146 3143 3144 3145 3147 3149 3152 3153 3155 3157 3158 3158 3158 3159 3158 3158 3157 3156 3154 3150 3147 3144 3140 3136 3131 3125 3119 3113 3107 3101 3096
3130 3133 3132 3134 3136 3137 3139 3141 3141 3145 3145 3143 3143 3141 3139 3139 3141 3145 3148 3149 3150 3152 3154 3155 3155 3155 3155 3155 3154 3152 3150 3146 3144 3141 3137 3133 3127 3121 3116 3110 3104 3098 3091 3085
3128 3130 3131 3132 3134 3138 3137 3138 3140 3140 3142 3143 3140 3137 3137 3136 3137 3139 3143 3144 3146 3148 3150 3151 3152 3152 3150 3149 3148 3146 3143 3140 3137 3133 3129 3125 3120 3115 3110 3104 3097 3090 3084 3077
3127 3129 3130 3131 3133 3135 3135 3137 3138 3138 3141 3141 3136 3133 3131 3132 3134 3136 3138 3140 3143 3145 3146 3147 3147 3147 3145 3144 3142 3139 3135 3133 3131 3127 3124 3119 3113 3108 3102 3095 3088 3082 3076 3069
3126 3128 3130 3131 3131 3132 3133 3134 3135 3136 3137 3137 3137 3130 3129 3130 3132 3134 3136 3139 3140 3142 3143 3143 3143 3141 3140 3139 3137 3133 3129 3127 3124 3120 3116 3111 3105 3098 3092 3085 3078 3071 3065 3058
3125 3125 3126 3129 3129 3130 3131 3132 3133 3134 3135 3135 3134 3130 3127 3128 3130 3132 3134 3135 3137 3138 3138 3138 3137 3136 3135 3133 3130 3127 3125 3120 3118 3112 3107 3100 3095 3089 3082 3075 3069 3062 3055 3048
3122 3123 3125 3127 3130 3128 3129 3129 3130 3131 3131 3130 3131 3127 3125 3126 3127 3128 3129 3131 3132 3133 3133 3132 3132 3131 3129 3127 3124 3122 3118 3114 3108 3103 3097 3092 3086 3080 3073 3067 3060 3053 3047 3040
3120 3120 3121 3122 3122 3123 3124 3125 3127 3128 3128 3126 3124 3123 3124 3123 3123 3123 3125 3126 3127 3128 3127 3127 3127 3125 3124 3122 3118 3114 3110 3105 3100 3095 3090 3084 3078 3072 3066 3060 3053 3046 3039 3033
3117 3117 3119 3119 3120 3120 3121 3122 3122 3123 3123 3122 3120 3118 3120 3119 3118 3118 3119 3120 3121 3122 3121 3121 3121 3120 3117 3114 3111 3106 3102 3098 3093 3089 3083 3077 3072 3066 3059 3052 3045 3039 3032 3026
3114 3115 3116 3117 3117 3117 3118 3118 3118 3118 3118 3116 3115 3112 3115 3114 3113 3113 3113 3114 3114 3114 3115 3114 3114 3112 3109 3106 3102 3099 3095 3090 3087 3082 3077 3070 3064 3058 3051 3045 3038 3032 3025 3019
3111 3111 3113 3113 3113 3114 3115 3112 3112 3112 3111 3112 3109 3110 3109 3108 3107 3108 3108 3108 3108 3108 3108 3108 3107 3105 3102 3098 3095 3091 3088 3084 3080 3075 3069 3063 3056 3050 3043 3037 3031 3025 3019 3013
3107 3108 3110 3110 3110 3111 3106 3106 3107 3106 3107 3106 3105 3105 3104 3103 3103 3102 3102 3102 3102 3101 3101 3101 3099 3097 3094 3090 3087 3084 3081 3077 3072 3067 3062 3055 3048 3042 3036 3030 3024 3018 3012 3008
3105 3106 3107 3107 3105 3103 3103 3103 3103 3102 3102 3102 3101 3100 3098 3097 3097 3098 3097 3096 3095 3094 3094 3093 3091 3089 3085 3082 3079 3077 3072 3068 3064 3059 3054 3047 3039 3033 3028 3022 3016 3011 3006 3001
3102 3103 3105 3104 3104 3101 3100 3100 3099 3098 3095 3096 3095 3094 3093 3093 3092 3093 3090 3089 3088 3087 3086 3085 3082 3079 3076 3074 3072 3069 3065 3061 3056 3051 3045 3038 3031 3025 3020 3014 3009 3004 2999 2995
3100 3100 3100 3099 3099 3096 3096 3096 3095 3096 3097 3091 3091 3090 3089 3088 3087 3085 3083 3082 3081 3080 3078 3077 3073 3070 3068 3066 3064 3062 3058 3053 3048 3042 3036 3029 3023 3017 3012 3007 3002 2997 2993 2989
3097 3097 3096 3095 3095 3094 3092 3093 3094 3093 3090 3088 3086 3085 3083 3081 3079 3077 3076 3074 3073 3072 3070 3068 3064 3061 3060 3058 3057 3054 3050 3044 3040 3033 3027 3021 3015 3010 3005 3000 2995 2990 2987 2984
3094 3093 3094 3095 3092 3090 3089 3088 3087 3085 3083 3082 3080 3078 3076 3074 3072 3070 3068 3066 3064 3063 3060 3057 3054 3052 3051 3050 3048 3044 3040 3035 3030 3025 3018 3011 3006 3002 2997 2992 2987 2983 2980 2977
3089 3089 3088 3087 3087 3086 3084 3082 3080 3078 3076 3075 3072 3070 3068 3066 3064 3062 3059 3057 3055 3053 3050 3046 3044 3042 3042 3042 3039 3035 3031 3026 3021 3015 3009 3004 2998 2994 2989 2985 2981 2977 2974 2972
3086 3085 3082 3081 3081 3079 3078 3076 3073 3071 3069 3067 3064 3062 3060 3057 3055 3053 3050 3047 3045 3042 3038 3035 3035 3034 3035 3034 3031 3026 3022 3017 3011 3006 3001 2996 2991 2986 2982 2977 2974 2971 2968 2966
3081 3079 3078 3075 3075 3072 3071 3070 3067 3064 3062 3059 3056 3053 3051 3048 3046 3043 3042 3039 3036 3032 3029 3028 3027 3028 3028 3025 3022 3017 3014 3009 3003 2999 2993 2988 2983 2979 2975 2971 2968 2965 2963 2961
Wind_Speed
12 15 14 21 19 8 9 11 13 14 11 9 7 3 3 9 12 10 10 12 13 15 12 12 12 11 11 10 11 13 11 14 15 10 13 13 12 15 17 20 23 25 27 30
14 18 15 16 12 10 8 7 10 13 15 11 8 7 5 10 14 13 14 13 13 14 11 8 6 7 10 9 8 11 12 10 10 14 18 19 15 14 17 20 25 30 34 38
9 10 11 10 7 6 3 2 3 13 18 10 7 4 7 12 16 15 14 12 9 6 7 6 3 5 6 7 6 6 9 15 18 16 15 17 21 22 25 28 32 36 40 43
10 9 7 6 6 6 3 1 1 10 15 7 11 4 9 13 15 14 11 10 10 12 9 5 6 6 6 7 8 11 13 12 11 11 15 21 25 29 32 35 38 41 43 44
10 9 6 4 4 5 7 7 6 13 8 6 11 4 11 16 17 16 14 15 15 13 9 8 6 4 10 17 11 10 8 7 11 17 21 25 30 34 37 38 41 43 44 44
12 10 7 6 3 2 5 10 10 8 5 3 9 13 11 20 23 21 20 18 17 15 10 7 5 8 12 11 10 14 14 13 16 18 25 30 35 38 39 41 43 43 43 42
9 8 6 4 5 6 7 13 3 1 2 3 8 10 19 9 19 23 21 21 19 16 12 9 5 9 10 9 12 16 17 18 19 23 29 34 38 41 43 44 44 44 43 42
9 4 7 10 10 7 11 14 6 5 4 3 7 7 11 13 17 21 19 20 18 15 11 9 10 6 11 15 18 19 21 23 23 27 33 38 43 45 44 44 44 43 43 43
9 6 8 8 12 9 7 11 14 4 2 2 6 9 11 13 16 26 27 24 19 16 12 11 13 13 18 18 20 23 25 27 28 34 37 43 44 42 43 41 41 41 41 41
7 5 9 8 11 11 7 8 5 6 4 3 4 8 13 9 14 26 31 28 22 18 16 15 15 19 22 23 24 28 32 28 33 39 42 39 39 39 39 40 41 41 41 42
11 7 8 9 9 11 10 8 5 4 3 3 2 5 2 5 10 13 18 22 21 19 18 18 20 24 27 29 29 35 35 34 38 40 39 37 37 39 42 42 43 44 44 43
14 8 8 12 8 10 10 8 7 4 4 6 3 8 4 2 11 17 18 17 20 22 22 23 26 29 32 31 35 37 36 39 42 35 35 37 40 42 44 45 46 45 44 43
14 9 7 5 10 13 13 13 11 8 7 7 3 4 2 7 7 15 23 25 25 26 26 27 27 28 31 31 33 36 38 42 32 34 36 39 42 44 45 46 47 46 44 41
15 15 12 16 7 10 17 17 14 12 7 9 17 20 16 15 12 9 17 20 24 28 28 29 28 28 27 30 34 36 40 35 33 35 37 40 43 44 47 47 47 45 43 41
16 16 17 14 11 9 10 11 13 16 17 15 19 22 16 16 14 12 14 20 24 26 27 28 26 24 28 32 38 36 37 34 33 34 38 41 43 45 47 46 44 43 41 39
16 12 16 15 16 13 15 15 16 19 21 23 24 26 17 16 16 16 15 16 18 21 27 26 24 26 28 35 34 34 35 32 33 35 39 42 45 46 47 45 43 41 39 37
15 17 13 9 14 16 15 22 22 22 22 22 24 19 19 20 17 15 16 16 15 18 23 23 22 24 29 33 34 34 31 31 34 37 40 43 46 47 46 43 42 40 37 34
11 14 13 7 9 3 17 19 18 18 15 17 21 21 20 21 19 18 17 14 16 18 20 22 24 28 32 34 34 30 29 32 35 39 42 45 47 47 44 41 41 38 35 32
10 11 8 5 10 17 12 13 17 21 21 16 21 22 23 20 19 17 16 21 20 19 21 24 27 30 32 32 29 28 30 34 38 41 43 46 46 44 41 40 39 37 34 29
12 13 13 9 5 4 6 7 13 20 23 19 12 12 15 17 17 21 24 22 20 20 23 25 28 31 28 28 25 28 33 37 40 42 44 46 44 41 39 39 37 36 31 26
8 9 14 16 13 10 14 18 20 11 13 11 14 13 20 23 26 29 27 24 22 21 23 29 37 24 25 23 25 30 35 39 40 43 45 43 40 38 37 38 35 33 27 24
12 6 8 8 7 7 9 9 10 13 21 23 24 27 26 27 28 27 25 26 23 24 27 30 36 26 23 20 26 32 37 39 41 43 42 40 37 35 36 36 34 30 24 25
14 15 10 9 9 13 21 24 23 24 23 24 28 28 28 28 29 28 29 32 29 29 33 32 28 23 15 21 28 34 37 39 41 41 40 37 35 34 35 34 32 28 25 27
17 15 19 21 22 21 23 25 25 25 27 28 30 29 29 29 30 32 34 32 31 32 34 36 24 14 18 24 31 34 37 39 39 38 35 34 34 33 33 31 29 25 23 25
15 19 24 26 25 23 21 23 24 25 26 27 29 29 30 31 32 34 31 31 31 38 38 23 14 18 21 27 30 33 36 37 36 34 35 34 31 30 30 27 25 23 21 25
20 20 20 21 17 20 23 24 26 28 28 27 29 30 30 30 29 27 29 32 37 35 26 13 17 19 23 27 29 32 35 34 33 35 34 31 29 28 26 23 22 19 20 22
Wind_Direction
162 165 172 165 181 200 213 190 173 169 185 192 198 224 219 197 199 206 231 243 248 248 251 253 259 253 248 252 252 277 312 321 330 337 338 342 340 332 320 308 303 298 299 300
138 147 149 171 182 191 182 189 213 204 202 200 199 205 219 212 210 216 233 251 258 259 261 266 259 243 233 250 272 315 335 345 340 347 3 360 340 321 310 302 301 303 309 309
158 143 164 150 150 168 147 292 195 194 181 185 194 193 208 214 213 222 234 240 239 222 176 170 165 131 97 32 11 22 14 3 4 9 354 335 323 317 313 314 316 315 314 314
157 158 155 138 174 140 161 224 246 174 166 158 192 196 215 208 214 223 225 201 182 174 177 177 126 124 25 26 5 358 2 357 350 335 330 329 329 326 321 317 314 313 314 313
163 167 175 188 171 140 159 173 174 164 191 176 206 213 212 208 212 213 198 186 177 178 179 144 131 36 348 331 327 323 321 306 311 312 318 322 326 321 317 315 314 313 312 312
179 181 190 211 168 180 156 157 171 195 193 224 215 216 233 224 232 209 192 184 185 189 186 177 182 359 342 320 324 310 298 296 305 301 308 316 319 318 315 315 315 315 314 314
159 186 201 218 209 181 188 171 132 187 194 228 217 225 237 232 234 219 201 195 202 201 200 192 246 311 278 298 308 314 297 292 295 304 312 315 318 319 319 320 318 316 314 312
186 186 221 219 218 214 209 202 200 197 198 211 212 232 237 230 230 213 206 211 214 214 218 241 284 270 299 309 302 308 295 293 295 303 313 318 323 320 319 318 317 317 317 317
183 179 201 208 208 209 211 214 228 230 163 223 220 250 238 226 223 201 205 216 222 231 244 267 287 296 305 295 294 292 286 291 299 304 312 318 315 315 315 316 317 318 317 317
195 163 195 200 204 213 225 206 178 200 155 249 260 263 240 216 216 201 206 221 231 238 253 275 289 298 287 277 277 280 279 287 296 304 315 313 312 314 316 319 321 322 321 321
225 217 189 195 202 214 193 194 196 183 196 176 290 260 285 225 213 222 223 232 239 247 258 277 281 280 273 268 271 275 276 306 302 307 312 311 317 321 323 326 327 327 326 326
221 219 183 197 205 203 209 219 214 210 212 214 224 274 274 230 215 222 223 236 245 246 258 268 270 270 268 265 269 275 297 295 300 311 313 321 322 325 328 330 329 328 330 330
215 210 166 191 224 224 226 227 233 242 252 234 193 258 303 316 261 237 229 237 243 247 262 267 273 277 265 264 276 290 293 300 313 315 322 322 325 328 329 329 329 331 331 331
213 218 217 209 215 210 222 228 233 238 247 253 254 274 287 297 297 260 234 239 246 255 264 266 269 264 262 276 283 293 312 316 316 320 321 324 327 328 328 329 330 330 332 331
216 226 228 234 227 221 223 230 241 251 262 258 285 284 295 296 294 282 259 252 258 265 270 267 265 265 275 285 306 312 309 311 315 320 322 325 326 328 327 328 329 331 330 330
220 226 233 236 238 244 243 244 251 257 262 268 278 287 299 292 280 275 276 270 273 274 269 266 269 271 298 305 304 306 307 311 316 321 324 325 327 327 327 328 329 329 328 330
221 225 230 233 240 246 256 257 261 267 274 281 277 298 291 291 278 276 278 279 278 274 267 269 273 292 298 301 302 304 306 312 318 323 325 326 325 326 326 326 328 327 325 326
225 226 225 239 223 237 256 262 263 268 276 282 284 296 289 288 279 286 293 287 289 279 275 276 280 289 299 299 301 303 309 315 322 325 324 324 323 323 322 325 326 324 323 319
233 227 226 233 230 264 259 269 281 287 283 282 289 291 290 283 279 291 297 297 293 276 274 274 281 294 292 296 300 307 315 320 322 321 322 321 320 320 322 324 325 323 320 315
245 242 234 239 245 234 280 282 282 295 288 301 299 297 287 279 279 305 301 301 295 277 273 274 279 281 291 297 303 314 319 320 319 318 319 319 318 318 320 323 322 320 317 315
276 267 249 255 252 268 272 273 280 275 305 305 302 296 305 292 294 297 302 302 299 279 277 281 280 292 291 297 312 317 316 315 315 316 318 317 316 316 320 321 319 316 314 317
272 261 255 256 247 276 276 290 298 299 301 298 294 300 301 300 298 299 295 299 287 279 274 286 300 290 282 304 313 311 312 313 314 316 316 315 315 316 317 317 315 311 306 315
254 261 263 257 273 289 302 300 300 298 296 292 291 297 296 291 291 289 288 296 288 277 282 282 281 269 284 311 313 312 313 313 316 315 315 317 315 315 315 314 312 308 303 306
273 278 277 284 290 294 296 297 294 289 287 288 290 291 287 285 281 281 287 288 282 281 279 282 253 266 324 320 309 311 312 315 316 318 321 319 315 314 314 313 311 306 303 307
275 279 284 290 297 298 293 294 295 297 296 293 291 289 287 283 280 281 279 278 277 284 269 245 268 329 325 309 309 312 316 318 319 321 321 320 316 315 314 311 310 304 304 311
289 291 290 296 298 289 295 296 296 293 294 294 295 295 291 288 282 278 276 276 284 276 248 275 328 333 312 311 314 318 319 320 322 323 322 321 319 317 317 314 310 309 309 310